Cleveland, OH

1:29 PM EDT on July 27, 2017 (GMT -0400)
Cleveland-Hopkins International

Weather History for KCLE - April, 2013

Change the Weather History Date:

Thursday, April 11, 2013

  Actual Average Record
Temperature  
Mean Temperature 45 °F 48 °F  
Max Temperature 50 °F 57 °F 82 °F (1945)
Min Temperature 39 °F 39 °F 22 °F (1882)
Degree Days  
Heating Degree Days 20 17  
Month to date heating degree days 215 209  
Since 1 July heating degree days 5354 5252  
Cooling Degree Days 0 0  
Month to date cooling degree days 0 0  
Year to date cooling degree days 0 1  
Moisture  
Dew Point 41 °F    
Average Humidity 92    
Maximum Humidity 100    
Minimum Humidity 83    
Precipitation  
Precipitation 0.37 in 0.13 in 1.44 in (1981)
Month to date precipitation 1.74 1.34  
Year to date precipitation 8.46 9.33  
Snow  
Snow 0.00 in 0.20 in - ()
Month to date snowfall 0.2 2.1  
Since 1 July snowfall 51.6 66.9  
Snow Depth 0.00 in    
Sea Level Pressure  
Sea Level Pressure 29.82 in    
Wind  
Wind Speed 10 mph (NNE)    
Max Wind Speed 28 mph    
Max Gust Speed 36 mph    
Visibility 4 miles    
Events Rain , Thunderstorm    
T = Trace of Precipitation, MM = Missing Value Source: NWS Daily Summary

Daily Weather History Graph

Daily Weather History Graph

Search for Another Location

Airport or City:

Trip Planner

Search our weather history database for the weather conditions in past years. The results will help you decide how hot, cold, wet, or windy it might be!

Date:

Astronomy

Apr. 11, 2013 Rise Set
Actual Time 6:53 AM EDT 8:03 PM EDT
Civil Twilight 6:25 AM EDT 8:32 PM EDT
Nautical Twilight 5:51 AM EDT 9:06 PM EDT
Astronomical Twilight 5:15 AM EDT 9:42 PM EDT
Moon 7:23 AM EDT (4/11) 9:38 PM EDT (4/11)
Length of Visible Light 14h 06m
Length of Day
13h 10m
New Moon, 2% of the Moon is Illuminated
Apr 11
New Moon
Apr 18
First Quarter
Apr 25
Full
May 2
Last Quarter
May 9
New

Hourly Weather History & Observations

Time (EDT) Temp. Windchill Dew Point Humidity Pressure Visibility Wind Dir Wind Speed Gust Speed Precip Events Conditions
12:38 AM 42.1 °F 37.7 °F 41.0 °F 96% 29.93 in 3.0 mi NE 6.9 mph - 0.08 in Rain Light Rain
12:44 AM 42.1 °F 37.7 °F 41.0 °F 96% 29.92 in 3.0 mi ENE 6.9 mph - 0.11 in Rain Light Rain
12:51 AM 43.0 °F 37.7 °F 41.0 °F 93% 29.92 in 3.0 mi East 9.2 mph - 0.14 in Rain Rain
1:32 AM 44.1 °F 39.5 °F 42.1 °F 93% 29.93 in 3.0 mi NNE 8.1 mph - 0.09 in Rain Light Rain
1:35 AM 44.1 °F 39.0 °F 42.1 °F 93% 29.94 in 3.0 mi North 9.2 mph - 0.10 in Rain Light Rain
1:51 AM 42.1 °F 36.1 °F 41.0 °F 96% 29.93 in 3.0 mi NNE 10.4 mph - 0.12 in Rain Light Rain
2:37 AM 41.0 °F 33.1 °F 39.9 °F 96% 29.88 in 3.0 mi ENE 15.0 mph - 0.02 in Rain Light Rain
2:51 AM 41.0 °F 35.2 °F 39.9 °F 96% 29.88 in 3.0 mi NNE 9.2 mph - 0.03 in Rain Light Rain
3:51 AM 41.0 °F 34.3 °F 39.9 °F 96% 29.88 in 3.0 mi NNE 11.5 mph - 0.02 in Rain Light Rain
4:39 AM 39.9 °F 30.5 °F 39.0 °F 97% 29.84 in 3.0 mi NE 19.6 mph - 0.00 in   Overcast
4:51 AM 39.9 °F 31.4 °F 39.0 °F 97% 29.85 in 3.0 mi ENE 16.1 mph - 0.00 in   Overcast
5:06 AM 41.0 °F 35.8 °F 39.9 °F 96% 29.85 in 3.0 mi NE 8.1 mph - N/A   Overcast
5:25 AM 42.1 °F 36.6 °F 39.9 °F 92% 29.85 in 3.0 mi ENE 9.2 mph - N/A   Overcast
5:51 AM 42.1 °F 37.7 °F 41.0 °F 96% 29.86 in 3.0 mi ENE 6.9 mph - N/A   Overcast
6:10 AM 43.0 °F 37.7 °F 41.0 °F 93% 29.85 in 3.0 mi NE 9.2 mph - N/A   Overcast
6:51 AM 44.1 °F 39.0 °F 42.1 °F 93% 29.84 in 3.0 mi East 9.2 mph - N/A   Overcast
7:22 AM 44.1 °F 37.1 °F 42.1 °F 93% 29.92 in 3.0 mi WNW 15.0 mph 19.6 mph N/A   Overcast
7:33 AM 42.1 °F 34.2 °F 39.9 °F 92% 29.94 in 3.0 mi NW 16.1 mph - N/A   Overcast
7:47 AM 41.0 °F 33.9 °F 39.2 °F 93% 29.94 in 1.8 mi North 12.7 mph - 0.00 in Rain Light Rain
7:48 AM 41.0 °F 33.9 °F 39.9 °F 96% 29.96 in 1.5 mi North 12.7 mph - 0.00 in Rain Light Rain
8:05 AM 39.0 °F 30.6 °F 37.9 °F 96% 29.91 in 3.0 mi NE 15.0 mph - 0.00 in Rain Light Rain
8:51 AM 39.9 °F 32.9 °F 39.0 °F 97% 29.90 in 3.0 mi ENE 11.5 mph - 0.01 in   Overcast
9:51 AM 42.8 °F 40.1 °F 39.2 °F 87% 29.88 in 3.0 mi NE 4.6 mph - N/A Rain Light Rain
10:10 AM 43.0 °F 39.5 °F 41.0 °F 93% 29.87 in 3.0 mi Variable 5.8 mph - 0.01 in Rain Light Rain
10:21 AM 43.0 °F 38.8 °F 41.0 °F 93% 29.86 in 2.5 mi SE 6.9 mph - 0.02 in Rain Rain
10:39 AM 44.1 °F 38.1 °F 43.0 °F 96% 29.84 in 3.0 mi SSE 11.5 mph - 0.03 in Rain Light Rain
10:47 AM 44.6 °F 43.1 °F 42.8 °F 93% 29.86 in 3.0 mi Variable 3.5 mph - 0.03 in Rain Light Rain
10:51 AM 45.0 °F - 44.1 °F 97% 29.87 in 3.0 mi Calm Calm - 0.03 in Rain Light Rain
11:06 AM 46.0 °F 41.4 °F 44.1 °F 93% 29.85 in 3.0 mi North 9.2 mph - 0.01 in Rain Light Rain
11:17 AM 45.0 °F 39.7 °F 44.1 °F 97% 29.82 in 2.5 mi East 10.4 mph - 0.01 in Rain Light Rain
11:39 AM 43.0 °F 33.3 °F 42.1 °F 97% 29.87 in 3.0 mi NW 25.3 mph 28.8 mph 0.02 in Rain Light Rain
11:51 AM 39.9 °F 28.8 °F 39.0 °F 97% 29.88 in 3.0 mi North 27.6 mph 34.5 mph 0.02 in Rain Light Rain
12:07 PM 39.9 °F 30.8 °F 39.0 °F 97% 29.87 in 3.0 mi NNE 18.4 mph 27.6 mph 0.00 in   Overcast
12:25 PM 42.1 °F 35.2 °F 39.9 °F 92% 29.84 in 3.0 mi NE 12.7 mph - 0.00 in   Overcast
12:51 PM 44.1 °F 39.0 °F 42.1 °F 93% 29.85 in 6.0 mi NNE 9.2 mph - 0.00 in   Overcast
1:51 PM 44.1 °F 38.1 °F 42.1 °F 93% 29.83 in 6.0 mi NNE 11.5 mph - N/A   Overcast
2:24 PM 42.1 °F 38.4 °F 39.9 °F 92% 29.87 in 9.0 mi NW 5.8 mph - N/A   Overcast
2:51 PM 43.0 °F 37.7 °F 41.0 °F 93% 29.86 in 9.0 mi NNE 9.2 mph - N/A   Overcast
3:51 PM 44.1 °F 38.1 °F 39.9 °F 85% 29.83 in 10.0 mi NNE 11.5 mph - N/A   Overcast
4:20 PM 43.0 °F 37.2 °F 39.9 °F 89% 29.79 in 10.0 mi NE 10.4 mph - N/A   Mostly Cloudy
4:51 PM 43.0 °F 36.8 °F 39.9 °F 89% 29.80 in 10.0 mi NE 11.5 mph - N/A   Overcast
5:51 PM 43.0 °F 38.2 °F 39.9 °F 89% 29.79 in 10.0 mi North 8.1 mph - N/A   Overcast
6:51 PM 43.0 °F 38.8 °F 39.9 °F 89% 29.78 in 7.0 mi North 6.9 mph - 0.00 in Rain Light Rain
7:27 PM 43.0 °F 37.2 °F 41.0 °F 93% 29.72 in 4.0 mi NE 10.4 mph - 0.03 in Rain Light Rain
7:51 PM 44.1 °F 39.5 °F 42.1 °F 93% 29.73 in 4.0 mi NE 8.1 mph - 0.07 in Rain Light Rain
8:51 PM 45.0 °F 40.6 °F 44.1 °F 97% 29.70 in 5.0 mi NE 8.1 mph - 0.00 in Rain Light Rain
9:09 PM 48.0 °F - 46.0 °F 93% 29.66 in 6.0 mi ENE 10.4 mph - 0.01 in   Overcast
9:51 PM 50.0 °F - 46.9 °F 89% 29.65 in 10.0 mi ENE 11.5 mph - 0.01 in   Overcast
9:55 PM 48.9 °F - 46.9 °F 93% 29.64 in 9.0 mi ENE 11.5 mph - N/A   Overcast
10:21 PM 45.0 °F 39.3 °F 43.0 °F 93% 29.64 in 4.0 mi NW 11.5 mph - 0.00 in Rain Light Rain
10:25 PM 45.0 °F - 43.0 °F 93% 29.64 in 4.0 mi North - - 0.00 in   Overcast
10:39 PM 43.0 °F 36.4 °F 41.0 °F 93% 29.64 in 1.5 mi NNW 12.7 mph - 0.00 in Rain Light Rain
10:45 PM 42.8 °F 37.0 °F 41.0 °F 93% 29.63 in 1.5 mi NNW 10.4 mph - 0.00 in Rain Light Rain
10:51 PM 42.1 °F 35.7 °F 39.9 °F 92% 29.64 in 1.5 mi NNW 11.5 mph - 0.00 in Rain Light Rain
10:56 PM 42.1 °F 35.7 °F 39.9 °F 92% 29.64 in 1.5 mi North 11.5 mph - 0.00 in Rain Light Rain
11:07 PM 42.1 °F 36.1 °F 39.9 °F 92% 29.67 in 5.0 mi WNW 10.4 mph - 0.00 in Rain Light Rain
11:46 PM 39.2 °F 33.6 °F 39.2 °F 100% 29.63 in 7.0 mi North 8.1 mph - 0.00 in Rain , Thunderstorm Light Thunderstorms and Rain
11:51 PM 39.9 °F 34.5 °F 39.0 °F 97% 29.65 in 7.0 mi North 8.1 mph - 0.00 in Rain , Thunderstorm Light Thunderstorms and Rain